TimeCST,TemperatureF,Dew PointF,Humidity,Sea Level PressureIn,VisibilityMPH,Wind Direction,Wind SpeedMPH,Gust SpeedMPH,PrecipitationIn,Events,Conditions,WindDirDegrees,DateUTC
12:06 AM,64.4,64.4,100,29.55,3.0,SSW,15.0,-,0.01,Rain,Rain,200,2013-02-26 06:06:00
12:19 AM,66.2,64.4,94,29.56,3.0,SSW,16.1,24.2,0.04,Rain,Heavy Rain,210,2013-02-26 06:19:00
12:26 AM,66.2,64.4,94,29.55,5.0,SW,10.4,-,0.04,Rain,Light Rain,230,2013-02-26 06:26:00
12:53 AM,64.4,64.4,100,29.54,8.0,WSW,9.2,-,0.04,,Overcast,240,2013-02-26 06:53:00
12:56 AM,64.9,64.0,97,29.55,8.0,WSW,8.1,-,0.04,,Overcast,240,2013-02-26 06:56:00
1:56 AM,64.0,57.9,80,29.55,10.0,West,8.1,16.1,N/A,,Overcast,260,2013-02-26 07:56:00
2:56 AM,62.1,51.1,67,29.55,10.0,West,9.2,19.6,N/A,,Mostly Cloudy,260,2013-02-26 08:56:00
3:56 AM,60.1,48.0,64,29.58,10.0,WSW,6.9,-,N/A,,Scattered Clouds,250,2013-02-26 09:56:00
4:56 AM,59.0,45.0,60,29.61,10.0,WSW,8.1,18.4,N/A,,Clear,250,2013-02-26 10:56:00
5:56 AM,55.9,46.9,72,29.63,10.0,WSW,8.1,-,N/A,,Mostly Cloudy,240,2013-02-26 11:56:00
6:56 AM,55.9,41.0,57,29.67,10.0,WSW,8.1,18.4,N/A,,Mostly Cloudy,250,2013-02-26 12:56:00
7:56 AM,55.9,42.1,60,29.70,10.0,WSW,10.4,18.4,N/A,,Mostly Cloudy,250,2013-02-26 13:56:00
8:56 AM,55.9,43.0,62,29.72,10.0,WSW,18.4,26.5,N/A,,Mostly Cloudy,240,2013-02-26 14:56:00
9:56 AM,55.0,43.0,64,29.73,10.0,West,15.0,21.9,N/A,,Scattered Clouds,270,2013-02-26 15:56:00
10:56 AM,55.9,39.9,55,29.76,6.2,WSW,18.4,29.9,N/A,,Scattered Clouds,250,2013-02-26 16:56:00
11:56 AM,55.9,41.0,57,29.77,10.0,WSW,20.7,27.6,N/A,,Scattered Clouds,250,2013-02-26 17:56:00
12:56 PM,57.0,42.1,57,29.75,10.0,West,16.1,29.9,N/A,,Scattered Clouds,260,2013-02-26 18:56:00
1:56 PM,57.9,41.0,53,29.74,10.0,WSW,9.2,23.0,N/A,,Mostly Cloudy,250,2013-02-26 19:56:00
2:56 PM,55.0,42.1,62,29.75,10.0,WSW,16.1,27.6,N/A,,Mostly Cloudy,250,2013-02-26 20:56:00
3:56 PM,55.0,41.0,59,29.75,10.0,WSW,9.2,20.7,N/A,,Mostly Cloudy,250,2013-02-26 21:56:00
4:56 PM,54.0,42.1,64,29.78,10.0,WSW,8.1,18.4,N/A,,Mostly Cloudy,250,2013-02-26 22:56:00
5:56 PM,54.0,43.0,66,29.81,10.0,WSW,8.1,-,N/A,,Mostly Cloudy,250,2013-02-26 23:56:00
6:56 PM,54.0,43.0,66,29.83,10.0,West,9.2,-,N/A,,Mostly Cloudy,260,2013-02-27 00:56:00
7:56 PM,54.0,43.0,66,29.86,10.0,West,5.8,-,N/A,,Mostly Cloudy,280,2013-02-27 01:56:00
8:56 PM,53.1,43.0,69,29.89,10.0,West,3.5,-,N/A,,Mostly Cloudy,260,2013-02-27 02:56:00
9:56 PM,53.1,44.1,71,29.91,10.0,West,3.5,-,N/A,,Clear,270,2013-02-27 03:56:00
10:56 PM,53.1,44.1,71,29.92,10.0,West,4.6,-,N/A,,Clear,280,2013-02-27 04:56:00
11:56 PM,53.1,42.1,66,29.93,10.0,WNW,5.8,-,N/A,,Clear,290,2013-02-27 05:56:00